STARLINK-32491, 62043

Orbit data source: Space-Track

STARLINK-32491, 62043 is a payload satellite owned by SpaceX/Seattle (US) in LEO that was launched on Thu, 21 Nov 2024 UTC via an FALCON 9 launch vehicle from the Air Force Eastern Test Range (AFETR). Payloads include a variety of satellites, spacecraft, and rockets equipped with specific instruments for various scientific and technological missions. These include communications satellites like Starlink; space stations such as the ISS; scientific satellites like the Hubble; Earth observation satellites from companies like Planet Labs, Umbra, and HawkEye 360; GPS; miniature CubeSats for education and research; and military/defense satellites.

Loading next visibility...
STARLINK-32491 details
Identifier
62043, 2024-216M
Orbit
LEO
Last TLE update7 hours ago
Origin
Flag of USSpaceX/Seattle (US)
ManufacturerSpaceX/Seattle
MissionOperational spacecraft
Bus & MotorSTARLINK V2M, Unknown motor
Mass730 kg wet, ~700 kg dry
Launch date (UTC)
2024-11-21 (1 month ago)
Launch vehicle
FALCON 9
Launch site
Air Force Eastern Test Range (AFETR)
Object type
Payload
Rocket body
Debris
Shape & HBRUnknown
Radar Cross SectionLarge (>1 m²)

Expand to show TLE details & history

TLE from 7 hours ago
0 STARLINK-32491
1 62043U 24216M   24361.16668981  .00108991  00000-0  25839-2 0  9998
2 62043  42.9996 233.4835 0001665 272.6407 353.6209 15.40645867  6381
Epoch: 2024-12-26T04:00Z
Definitive object data (Epoch: 2024-12-26T04:00:01.999Z)
Latitude-43.04516°
Longitude-16.77321°
Altitude456.365 km
Speed7.64 km/s
True Right ascension09h 13m 32s
True Declination-42° 51' 58"
Sunlit
Object was in daylight at TLE epoch
Visualization TLE readout
Latitude-4.21209°
Longitude72.2349°
Altitude444.243 km
Speed7.647 km/s
Apparent Right ascension17h 48m 02s
Apparent Declination-31° 17' 46"
Sunlit
Object is in daylight
Visualization observer readout
Local Sidereal Time09:57:23
Azimuth100.763° ESE
Elevation-39.613°
Doppler factor1
Orbital elements
Apogee altitude447.294 km
Perigee altitude445.022 km
Semi-major axis6,824.295 km
Eccentricity0.0001665
Inclination42.9996°
RAAN233.4835°
Arg. of periapsis272.6407°
True anomaly353.61878°
Mean anomaly353.6209°
Eccentric anomaly353.61984°
Mean motion3.84996 °/min
BSTAR0.0025839
Orbital period93.51 mins
Loading maneuver chart data...
Loading historical data...
Loading historical data...
Loading historical data...
Loading historical data...
Loading historical data...
Loading historical data...
Loading historical data...

STARLINK-32491 Visibility forecast

Observer location: undefined°, undefined

Span
Click to sort rows by Start time (UTC) header in descending order
Start Az.
Max El. time (UTC)
Max El. Az.
Max El.
End time (UTC)
End Az.
5 mins2024-12-26 18:36:10.994Z195.905° SSW2024-12-26 18:38:10.994Z156.297° SSE21.41°2024-12-26 18:41:10.994Z94.053° ESE
5 mins2024-12-26 20:14:10.994Z254.946° W2024-12-26 20:16:10.994Z288.183° WNW44.555°2024-12-26 20:19:10.994Z70.919° E
4 mins2024-12-26 21:53:10.994Z301.267° NW2024-12-26 21:54:10.994Z334.735° NNW35.762°2024-12-26 21:57:10.994Z72.438° E
5 mins2024-12-26 23:31:10.994Z290.157° WNW2024-12-26 23:33:10.994Z95.012° ESE43.411°2024-12-26 23:36:10.994Z107.037° ESE
4 mins2024-12-27 01:09:10.994Z248.517° W2024-12-27 01:10:10.994Z225.85° WSW20.679°2024-12-27 01:13:10.994Z162.672° S
|